Wind_Speed
44 47 47 45 47 49 51 49 50 57 56 64 64 65 67 68 68 69 69 72 75 80 84 87 88 86 87 91 88 85 80 75 71 65 59 54 52 48 44 43 44 46 48
46 43 42 43 45 48 53 50 55 58 60 61 64 67 67 69 70 72 74 76 78 81 86 87 89 94 90 87 85 79 72 67 61 55 50 47 42 41 42 43 47 47 44
39 43 44 44 52 55 59 58 59 60 63 64 65 66 69 71 73 75 78 81 84 85 88 92 91 91 88 84 76 67 62 58 55 50 44 39 38 40 42 46 46 42 41
38 45 47 51 59 60 59 59 61 63 65 65 67 68 70 73 76 79 81 82 84 88 88 89 87 85 79 73 64 60 56 53 50 45 39 36 38 40 43 45 42 42 41
43 48 52 60 59 59 59 60 63 65 65 67 67 69 72 75 78 80 82 86 88 86 85 82 78 73 69 64 57 54 52 48 44 39 36 35 37 39 43 42 40 38 37
42 54 58 57 58 59 60 62 63 64 65 67 69 72 75 77 79 82 86 84 82 81 76 69 69 68 64 58 53 50 48 44 40 36 34 35 36 40 39 38 38 36 34
53 56 56 56 57 60 61 61 63 64 67 70 72 75 77 78 81 83 81 76 76 73 66 66 68 66 60 54 50 47 44 40 37 33 32 34 35 36 34 36 38 36 34
54 54 55 57 58 60 61 62 64 66 70 72 75 76 78 81 81 75 72 73 72 68 66 68 68 64 56 50 46 43 40 38 35 32 31 32 33 33 35 36 36 33 33
52 54 56 57 58 59 60 64 67 70 72 73 74 76 81 79 73 71 71 72 72 68 69 71 68 60 52 47 44 40 37 37 34 32 31 31 31 32 35 35 34 31 29
54 55 57 57 58 60 63 67 71 72 73 74 76 79 78 72 71 71 73 74 70 69 71 72 65 55 47 44 41 37 36 36 33 32 31 31 31 32 35 36 34 30 29
54 56 56 57 60 64 68 70 71 73 74 77 79 79 76 73 72 73 75 71 70 71 73 69 60 51 44 41 39 35 34 33 32 31 30 30 31 32 33 36 36 31 26
55 55 58 60 64 67 68 70 72 74 77 78 79 76 73 74 75 74 71 72 74 76 72 63 54 47 42 40 38 34 33 32 31 31 30 30 30 30 31 33 35 34 28
55 58 60 64 66 67 69 71 75 78 78 78 76 75 75 75 73 73 73 76 79 75 66 56 49 44 41 39 37 33 32 32 29 30 30 30 30 29 29 31 34 33 29
57 60 63 64 66 68 72 75 78 80 79 79 77 76 74 69 71 77 79 80 74 65 57 50 45 42 40 38 36 32 31 31 29 28 28 28 29 28 29 30 31 31 29
61 62 63 65 68 70 74 77 79 78 77 76 73 72 75 76 77 83 82 74 62 54 51 46 43 40 38 37 35 32 32 30 28 28 27 26 27 26 27 28 29 28 26
62 63 65 68 71 75 78 79 80 79 76 73 73 78 81 84 85 81 75 64 54 47 44 41 39 38 36 35 33 33 32 31 29 26 26 26 26 26 26 26 26 25 25
63 67 70 72 76 79 83 85 86 79 73 74 78 82 86 84 76 64 63 57 48 46 44 40 36 35 34 34 32 31 32 32 29 28 26 25 25 25 24 24 24 24 24
67 71 74 77 80 83 85 82 78 79 80 78 80 82 76 71 64 57 53 53 50 47 46 39 34 32 32 32 31 29 30 30 29 28 27 25 23 24 22 22 22 23 22
70 74 77 79 82 84 81 78 78 80 84 83 78 72 67 63 57 51 47 48 47 44 41 37 34 31 30 31 29 27 27 27 27 26 25 24 23 22 21 21 21 21 19
74 77 79 81 83 80 78 77 79 82 79 75 70 70 66 56 48 44 41 41 40 38 36 35 33 32 31 30 28 27 27 27 27 27 26 24 23 21 20 20 19 19 18
77 79 81 82 79 77 76 80 81 76 72 68 67 62 54 48 41 37 37 38 36 35 35 33 32 31 30 29 28 27 27 28 28 27 25 24 22 21 19 18 18 17 17
79 80 80 77 74 75 80 80 76 71 66 66 60 52 48 43 41 38 37 37 36 32 33 33 31 30 30 29 28 28 28 27 27 25 23 22 21 20 19 18 17 17 16
79 78 74 71 74 78 80 77 73 68 66 61 53 50 48 46 45 45 44 41 41 38 33 33 32 31 31 30 30 28 28 27 27 25 23 21 20 20 19 19 18 17 17
74 71 70 73 76 80 78 76 71 66 62 53 50 50 50 49 49 49 48 47 44 42 39 34 33 32 32 31 31 29 29 28 28 26 24 23 23 22 22 21 20 19 18
70 69 72 75 79 79 78 74 67 63 55 51 51 52 51 49 48 47 47 46 44 41 39 37 33 32 32 31 31 32 30 29 29 28 26 26 25 25 24 23 23 22 21
68 70 75 79 79 78 77 69 61 55 50 52 54 54 53 50 46 42 40 38 36 32 32 33 34 32 32 32 32 30 29 30 31 29 27 26 25 23 24 24 24 24 24
Wind_Direction
293 293 295 298 304 307 307 309 298 302 292 296 302 303 303 306 305 305 304 303 303 303 303 301 302 302 304 311 312 311 308 303 301 301 300 295 290 287 284 284 285 286 285
290 291 291 294 295 293 301 302 296 299 302 303 303 305 304 304 304 303 302 301 301 302 303 301 300 308 312 314 312 309 305 303 303 303 297 293 289 286 287 289 291 290 286
287 286 286 296 303 300 306 305 306 304 303 305 305 304 304 304 304 303 302 303 304 303 301 304 311 313 314 313 309 306 305 305 305 302 297 291 287 289 292 293 294 292 291
287 291 288 291 299 304 307 306 305 304 305 305 305 305 304 303 303 303 304 304 302 304 310 311 312 314 313 309 307 305 305 305 303 300 294 291 291 292 295 298 297 297 294
284 285 288 299 303 305 304 304 303 304 305 305 305 304 304 304 304 305 304 304 308 310 312 313 314 314 313 310 307 305 305 304 301 297 292 291 292 296 300 299 297 297 293
279 290 298 303 303 302 302 302 304 304 305 305 305 305 305 304 305 304 306 309 310 312 316 316 318 318 315 310 307 305 304 304 300 294 291 292 296 299 300 303 302 300 295
293 298 301 300 300 300 302 304 304 305 306 305 305 305 305 306 307 308 308 309 313 318 317 320 320 319 314 309 306 304 304 303 298 292 291 292 296 301 306 311 307 302 295
297 298 299 299 301 303 304 305 305 306 305 306 306 307 307 307 308 308 309 313 317 316 318 322 320 317 312 308 306 303 303 301 296 292 290 293 301 306 312 312 309 304 297
298 300 300 302 302 303 304 305 306 306 306 307 309 306 305 308 307 307 310 314 316 315 318 320 318 315 310 307 305 301 301 299 295 291 291 295 301 307 312 313 314 307 297
301 301 301 302 303 304 305 306 306 307 308 309 306 305 307 307 306 308 311 313 314 315 317 318 316 312 307 304 303 298 298 299 293 291 292 296 300 307 312 317 319 315 304
300 301 302 303 305 305 307 307 307 309 309 308 308 308 307 306 307 309 310 312 313 314 316 315 312 308 304 302 301 294 296 297 292 288 291 296 301 305 311 317 321 320 309
302 302 304 305 306 306 305 306 309 309 309 309 309 308 306 306 307 309 310 312 312 313 313 311 307 304 300 299 298 290 290 294 293 289 291 295 297 300 310 315 321 322 316
303 305 306 306 305 305 307 309 310 310 310 310 308 306 304 305 308 309 310 311 312 312 310 306 301 298 295 294 294 286 285 290 294 290 287 290 294 299 305 311 317 321 316
304 305 304 304 306 308 310 311 311 311 310 309 306 305 306 307 309 308 310 310 310 309 306 303 295 290 289 289 290 282 278 284 288 290 289 290 294 298 304 307 311 318 318
305 305 306 307 308 309 310 311 311 310 308 308 308 307 308 309 309 307 308 309 309 305 303 301 293 286 285 286 286 278 275 280 284 286 289 291 294 299 302 306 311 316 318
305 305 306 307 308 310 311 312 311 311 311 310 310 309 309 308 308 307 308 309 307 304 305 301 293 287 284 284 280 274 273 277 282 287 290 291 293 296 300 303 309 315 319
304 305 307 308 310 312 313 313 313 312 311 310 309 307 306 306 306 304 300 304 304 301 299 298 295 288 283 282 277 269 267 272 277 281 287 290 292 293 296 300 307 313 318
305 307 310 311 313 314 314 314 313 312 311 310 308 307 306 305 305 302 298 297 295 294 291 292 291 285 282 279 274 267 264 268 273 278 282 285 290 293 293 298 304 309 316
308 310 311 312 313 315 315 314 313 313 313 312 311 310 309 308 304 297 292 290 290 288 288 291 288 284 280 276 270 263 263 266 271 275 279 283 285 292 291 295 300 305 312
309 311 312 314 315 315 315 315 315 314 313 313 312 311 311 308 305 300 295 292 292 292 291 288 286 284 279 274 268 261 258 264 270 274 277 279 279 286 289 289 296 300 308
311 312 314 315 316 316 316 317 316 316 315 314 314 313 312 310 306 301 297 296 295 293 288 286 282 279 276 271 266 261 259 263 268 271 274 274 274 278 284 285 291 296 303
312 313 315 316 316 317 319 319 318 318 317 316 315 313 311 308 305 302 298 295 293 291 286 284 279 272 266 266 262 260 259 260 263 265 267 268 270 273 279 281 285 291 295
313 315 316 316 317 319 321 320 320 318 317 316 313 312 310 306 302 298 294 291 288 286 281 276 274 266 261 259 259 253 255 256 260 262 261 265 269 271 275 278 280 283 287
314 315 315 316 317 321 320 321 320 318 316 313 311 311 309 305 300 294 289 285 280 277 275 271 268 262 256 255 252 252 249 252 254 256 258 261 265 269 271 274 276 279 281
314 314 316 317 320 321 321 321 319 317 315 313 314 313 311 308 301 294 287 280 275 272 269 267 263 258 253 250 248 248 245 245 253 256 256 259 262 267 271 273 274 275 275
313 315 317 319 321 321 322 320 318 317 316 317 318 318 317 314 309 299 290 279 273 268 264 261 260 255 251 247 243 243 246 246 250 253 255 256 259 263 269 272 272 272 270
Height
5733 5729 5725 5720 5715 5709 5704 5699 5692 5689 5683 5675 5665 5656 5649 5641 5632 5624 5616 5607 5598 5589 5578 5568 5556 5546 5534 5521 5508 5496 5485 5474 5466 5459 5451 5443 5437 5431 5428 5424 5422 5419 5415
5725 5720 5716 5712 5706 5701 5696 5691 5685 5676 5669 5661 5652 5644 5636 5627 5619 5610 5601 5591 5581 5570 5558 5547 5536 5524 5512 5500 5486 5473 5463 5455 5448 5444 5437 5429 5424 5420 5417 5414 5410 5405 5401
5715 5710 5705 5699 5695 5689 5683 5677 5670 5662 5655 5648 5640 5631 5622 5613 5603 5594 5584 5573 5563 5552 5540 5528 5516 5503 5492 5480 5467 5455 5446 5439 5433 5428 5423 5419 5415 5410 5407 5403 5398 5393 5388
5705 5700 5695 5690 5684 5677 5670 5664 5656 5649 5642 5634 5626 5617 5608 5597 5587 5576 5567 5556 5545 5533 5521 5509 5497 5486 5474 5461 5450 5441 5433 5427 5420 5415 5412 5409 5405 5401 5396 5392 5387 5381 5376
5697 5691 5685 5678 5672 5665 5658 5651 5643 5635 5628 5620 5611 5602 5592 5582 5572 5561 5549 5538 5526 5514 5503 5492 5480 5469 5456 5445 5436 5428 5421 5415 5409 5406 5402 5399 5396 5392 5386 5381 5375 5371 5366
5686 5680 5673 5666 5659 5652 5645 5638 5630 5622 5614 5605 5596 5587 5577 5566 5554 5542 5531 5519 5508 5498 5487 5475 5464 5452 5440 5431 5423 5416 5410 5405 5400 5397 5393 5390 5387 5383 5377 5371 5365 5360 5357
5674 5667 5660 5654 5647 5639 5632 5624 5617 5608 5599 5590 5580 5570 5559 5547 5536 5524 5513 5503 5493 5482 5472 5462 5450 5438 5428 5419 5412 5406 5400 5395 5391 5388 5385 5382 5379 5374 5370 5363 5356 5351 5346
5661 5655 5649 5641 5633 5625 5618 5610 5603 5595 5585 5574 5562 5551 5540 5529 5518 5508 5498 5488 5478 5468 5458 5447 5436 5425 5415 5408 5401 5395 5391 5386 5382 5379 5377 5374 5370 5365 5360 5355 5349 5343 5338
5649 5642 5634 5627 5620 5612 5604 5596 5588 5578 5568 5557 5546 5535 5524 5513 5502 5493 5483 5473 5464 5453 5443 5433 5422 5413 5404 5396 5391 5386 5382 5377 5374 5371 5369 5366 5363 5358 5353 5348 5341 5335 5331
5635 5628 5621 5613 5606 5598 5589 5580 5571 5561 5551 5541 5530 5519 5508 5498 5487 5478 5467 5458 5449 5439 5429 5418 5407 5400 5393 5386 5382 5377 5373 5369 5365 5363 5360 5358 5355 5351 5345 5339 5334 5328 5322
5622 5614 5606 5599 5591 5582 5573 5563 5553 5543 5534 5525 5515 5502 5490 5480 5472 5461 5452 5444 5434 5425 5415 5403 5394 5388 5382 5376 5372 5368 5365 5361 5357 5355 5353 5350 5347 5343 5338 5332 5326 5321 5317
5607 5600 5592 5584 5576 5567 5558 5547 5537 5527 5517 5505 5494 5485 5473 5462 5454 5445 5435 5426 5417 5408 5399 5389 5380 5375 5370 5365 5362 5359 5356 5354 5350 5347 5345 5342 5340 5336 5332 5326 5320 5314 5310
5592 5585 5578 5569 5560 5551 5542 5532 5521 5508 5497 5487 5475 5466 5459 5448 5435 5425 5418 5410 5399 5389 5382 5374 5367 5362 5358 5355 5351 5350 5348 5345 5343 5339 5337 5335 5333 5329 5325 5321 5315 5310 5304
5578 5571 5563 5554 5544 5534 5524 5513 5503 5491 5478 5467 5457 5447 5438 5432 5422 5408 5400 5391 5382 5372 5364 5359 5354 5349 5346 5344 5341 5340 5339 5337 5335 5332 5330 5328 5325 5322 5319 5315 5311 5305 5299
5564 5555 5545 5537 5528 5519 5509 5496 5484 5475 5461 5448 5439 5427 5416 5411 5404 5389 5381 5373 5364 5356 5349 5345 5340 5336 5334 5332 5330 5329 5329 5328 5327 5324 5323 5320 5318 5315 5312 5309 5305 5300 5295
5547 5539 5531 5522 5512 5501 5491 5483 5470 5455 5444 5432 5420 5407 5396 5386 5378 5367 5360 5354 5348 5342 5338 5333 5328 5324 5323 5321 5320 5319 5319 5318 5318 5317 5315 5313 5311 5308 5306 5302 5299 5295 5290
5532 5524 5515 5504 5494 5482 5470 5456 5446 5442 5426 5416 5404 5391 5377 5367 5358 5350 5342 5337 5333 5328 5325 5322 5318 5314 5312 5311 5310 5310 5310 5309 5309 5309 5308 5306 5304 5301 5299 5296 5293 5290 5286
5516 5506 5496 5485 5473 5462 5449 5436 5423 5410 5400 5397 5388 5370 5358 5347 5340 5333 5326 5321 5319 5314 5311 5308 5306 5303 5301 5300 5300 5300 5301 5301 5301 5300 5300 5299 5297 5295 5293 5291 5288 5285 5282
5499 5489 5478 5467 5455 5442 5429 5417 5405 5392 5379 5366 5356 5347 5337 5330 5323 5315 5310 5305 5303 5301 5297 5295 5293 5291 5290 5290 5290 5291 5292 5292 5292 5292 5292 5291 5290 5289 5287 5285 5283 5281 5278
5481 5470 5460 5448 5436 5423 5411 5399 5387 5373 5359 5347 5336 5326 5317 5310 5305 5299 5295 5291 5289 5287 5285 5283 5281 5280 5279 5279 5280 5281 5282 5283 5284 5284 5284 5284 5283 5282 5281 5280 5278 5276 5274
5463 5452 5441 5428 5416 5404 5393 5381 5367 5354 5342 5330 5320 5310 5301 5295 5291 5287 5283 5279 5277 5274 5272 5271 5271 5269 5269 5269 5270 5272 5273 5274 5275 5275 5276 5276 5276 5275 5275 5274 5273 5272 5270
5445 5434 5421 5410 5398 5387 5375 5361 5348 5335 5325 5315 5305 5296 5289 5283 5278 5275 5272 5268 5265 5264 5261 5260 5260 5259 5259 5260 5261 5263 5264 5265 5266 5267 5268 5268 5269 5269 5268 5268 5267 5266 5266
5426 5414 5403 5393 5382 5370 5356 5343 5330 5319 5308 5298 5291 5284 5277 5271 5265 5261 5258 5255 5252 5251 5250 5249 5249 5249 5249 5250 5251 5253 5255 5257 5257 5258 5260 5261 5261 5262 5262 5262 5262 5261 5261
5407 5397 5387 5377 5365 5352 5339 5326 5314 5303 5294 5285 5278 5270 5263 5256 5250 5245 5241 5238 5237 5236 5236 5236 5236 5237 5238 5240 5242 5244 5246 5247 5248 5250 5252 5253 5254 5255 5255 5256 5256 5256 5255
5391 5380 5370 5359 5348 5335 5322 5309 5298 5288 5279 5272 5264 5256 5248 5241 5234 5227 5223 5220 5219 5219 5220 5221 5223 5224 5226 5228 5231 5233 5236 5238 5239 5241 5244 5245 5247 5247 5248 5249 5249 5249 5249
5374 5365 5353 5342 5330 5317 5305 5293 5283 5274 5266 5259 5250 5241 5232 5224 5216 5210 5206 5204 5204 5205 5206 5207 5209 5211 5213 5216 5219 5223 5226 5228 5229 5232 5235 5237 5238 5239 5240 5241 5241 5241 5242